カタログに戻る

SBIRS GEO 3

USA 282

運用中軍事GEO
NORAD 43162·PAYLOAD·🇺🇸 United States

打ち上げ Jan 20, 2018 から Cape Canaveral Space Force Station

Loading…

TLE

最新Source: Space-Track

元期: Sep 14, 2026, 18:10 UTC

1 43162U 18009A   26257.75742086  .00000121  00000-0  00000-0 0  9999
2 43162   2.2578  16.0883 0001847 154.1716 296.7478  1.00272736 31749

AllMySatでSBIRS GEO 3をリアルタイム追跡

Download on the App Store